Zurück zum Katalog

STARLINK-35282

AktivKommunikationSSO
NORAD 65658·PAYLOAD·🇺🇸 United States

Gestartet Sep 19, 2025 von Vandenberg Space Force Base

Loading…

Nächste Überflüge (nächste 24 Stunden)

TLE

AktuellSource: CelesTrak SupGP

Epoche: Sep 15, 2026, 02:46 UTC

1 65658C 25211G   26258.11576389  .00017040  00000+0  52891-3 0  2581
2 65658  97.2841 298.3567 0001399  90.8657 268.7651 15.33433949    10

Verfolge STARLINK-35282 in Echtzeit mit AllMySat

Download on the App Store